Location: Cardiff
(53.7833°N, 113.6000°W)
Time: 20:52:39
(UTC+00:00)

RS-15 - Pass Details

Date: 06 December 2023
Orbit: 1893 x 2151 km, 64.8° (Epoch: 24 February)

Event Time Altitude Azimuth Distance (km) Brightness Sun altitude
Rises 05:52:20 0° 241° (WSW) 5,644 10.5 -54.1°
Reaches altitude 10° 05:55:52 10° 244° (WSW) 4,624 10.0 -54.4°
Enters shadow 05:57:38 16° 247° (WSW) 4,126 9.7 -54.6°
Exits shadow 06:19:55 - 51° (NE) 4,570 10.0 -56.3°
Sets 06:22:47 0° 54° (NE) 5,406 10.4 -56.5°
